Flag for Germany Weather past 2 weeks in Aalen, Baden-Württemberg, Germany

Now
67 °F

Clear.


Feels Like: 67 °F
Forecast: 62 / 72 °F
Wind: 3 mph from Southeast

Location: Stoetten

Current Time: Jul 7, 2015 at 5:22:20 AM

Latest Report: Jul 7, 2015 at 5:00 AM


Visibility: 17 mi

Pressure: 29.99 "Hg

Humidity: 68%

Dew point: 56 °F

Location of AalenLocation

Historic Weather in Aalen — Graph

°F

Aalen temperature yesterday

Maximum temperature yesterday: 78 °F (at 6:00 PM)
Minimum temperature yesterday: 63 °F (at 7:00 AM)
Average temperature yesterday: 72 °F

Past Weeks' High & Low Weather Summary

 TemperatureHumidityPressure
High90 °F (Jul 5, 5:00 PM)100% (Jun 22, 5:00 AM)30.23 "Hg (Jun 22, 5:00 AM)
Low44 °F (Jun 23, 7:00 AM)35% (Jun 30, 4:00 PM)29.74 "Hg (Jun 22, 10:00 PM)
Average67 °F65%30.09 "Hg
* Reported Jun 22 4:00 AM — Jul 7 4:00 AM, Aalen, Weather by CustomWeather, © 2015

Note: Actual official high and low records may vary slightly from our data, if they occured in-between our weather recording intervals... More about our weather records

Advertising

Aalen weather history for previous 24 hours

 ConditionsComfort  
Time TempWeatherWind HumidityBarometerVisibility
4:00 AM
Tue, Jul 7
67 °FClear.3 mph61%30.01 "Hg28 mi
3:00 AM68 °FClear.3 mph53%30.03 "Hg43 mi
2:00 AM68 °FClear.3 mph57%30.04 "Hg40 mi
1:00 AM68 °FClear.3 mph61%30.05 "Hg31 mi
12:00 AM69 °FClear.3 mph62%30.06 "Hg28 mi
11:00 PM
Mon, Jul 6
71 °FClear.2 mph61%30.06 "Hg25 mi
10:00 PM71 °FClear.2 mph65%30.06 "Hg22 mi
9:00 PM76 °FPassing clouds.N/A53%30.03 "Hg25 mi
8:00 PM77 °FSunny.N/A50%30.03 "Hg25 mi
7:00 PM78 °FSunny.N/A51%30.03 "Hg28 mi
6:00 PM78 °FSunny.N/A51%30.04 "Hg25 mi
5:00 PM77 °FPassing clouds.5 mph53%30.06 "Hg43 mi
4:00 PM75 °FPassing clouds.3 mph55%30.09 "Hg43 mi
3:00 PM75 °FPassing clouds.5 mph61%30.09 "Hg47 mi
2:00 PM73 °FPassing clouds.6 mph58%30.12 "Hg47 mi
1:00 PM71 °FPassing clouds.5 mph63%30.14 "Hg47 mi
12:00 PM69 °FPassing clouds.3 mph65%30.15 "Hg47 mi
11:00 AM67 °FPassing clouds.5 mph69%30.18 "Hg47 mi
10:00 AM66 °FPassing clouds.6 mph74%30.19 "Hg47 mi
9:00 AM64 °FPartly sunny.6 mph79%30.18 "Hg31 mi
8:00 AM64 °FOvercast.5 mph85%30.18 "Hg22 mi
7:00 AM63 °FOvercast.6 mph89%30.17 "Hg14 mi
5:00 AM66 °FPassing clouds.7 mph86%30.09 "Hg7 mi
Weather by CustomWeather, © 2015

See weather overviewHow to use our weather pages